Погода в Антипаюте

Погода в Антипаюте : погода сейчас, прогноз погоды и архив. Всё, что Вы хотите узнать о погоде в Антипаюте!

Хотите узнать прогноз погоды в Антипаюте? Тогда Вам сюда: Погода в Антипаюте

Поиск расширенной информации на нашем сайте:

Другие новости

Новости СМИ2

Главная страница сайта

Новости сайта

03.07.2017

Напоминаем, что на нашем специализированном сайте Метеоцентр.Азия вы можете получить высокодетализированные автоматические прогнозы погоды по пунктам России, СНГ и мира в авиационном формате (включающие направление и скорость ветра, видимость, явления погоды, количество и форму облачности, нижнюю и верхнюю границу облачности).

Рекомендуем: Подробности мини сыроварня у нас на сайте.

Погода в Антипаюте - сегодня

Время (UTC), дата Ветер
(°,м/с) 
Видим.   Явления Облачность Т
(°С)
Тd
(°С)
f(%) Тe
(°С)
Pmin
(гПа)
dP
(гПа)
Po
(мм)
O2
(г/м3)
Тmin Tmax R s Состояние
почвы
21 18.11.17 120 (ЮВ) 20000 м    10/10 270 м 
[St]
-15.3 -16.7 89 -18  1018  763  327           
00 19.11.17 110 (В) 20000 м    10/0 средняя 
[Ac und]
-16.2 -17.7 88 -19  1017.9  0.1  763  328           
03 19.11.17 100 (В) 20000 м    9/0 средняя 
[Ac trans]
-17.2 -18.9 87 -20  1017.9  763  330  -17.2      18  неравномерный
сухой снег
100% 
06 19.11.17 090 (В) 20000 м    8/0 средняя 
[Ac trans]
-20.4 -22 87 -21  1018.1  0.2  763  334  -20.4         
18 19.11.17 060 (СВ) 20000 м    10/10 480 м 
[Sc]
-18.5 -20.1 87 -19  1019.3  0.1  764  332           
21 19.11.17 090 (В) 20000 м    10/10 480 м 
[Sc]
-17.3 -18.9 87 -20  1020.2  0.9  765  331           
00 20.11.17 080 (В) 20000 м    10/0 средняя 
[Ac und]
-17.9 -19.6 87 -22  1020.7  0.5  765  332           
03 20.11.17 070 (В) 20000 м    10/0 средняя 
[Ac und]
-21.1 -23.2 83 -27  1021.8  766  336  -21.1      18  неравномерный
сухой снег
100% 
06 20.11.17 090 (В) 20000 м    9/0 средняя 
[Ac trans]
-21.6 -23.7 83 -25  1022.4  0.7  766  337  -21.6         
09 20.11.17 070 (В) 20000 м    8/0 средняя 
[Ac trans]
-23.9 -26.2 81 -27  1023.5  767  341           
12 20.11.17 060 (СВ) 20000 м    9/0 средняя 
[Ac trans]
-28.8 -31.6 77 -32  1024.5  768  348           
18 20.11.17 040 (СВ) 20000 м    8/8 570 м 
[Sc]
-24.6 -26.9 81 -25  1025.2  0.2  769  342           
21 20.11.17 060 (СВ) 20000 м    10/10 570 м 
[Sc]
-24.5 -26.8 81 -28  1025.8  0.6  769  342           
00 21.11.17 090 (В) 20000 м    10/10 540 м 
[Sc]
-23.1 -25.2 83 -26  1026.1  0.3  769  340           
03 21.11.17 090 (В) 20000 м    10/10 500 м 
[Sc]
-22.3 -24.4 83 -27  1026.1  769  339  -25.8      18  неравномерный
сухой снег
100% 
06 21.11.17 100 (В) 20000 м    9/9 420 м 
[Sc]
-22.8 -24.9 83 -29  1026.2  0.2  769  340           
09 21.11.17 080 (В) 20000 м    9/0 средняя 
[Ac trans]
-26.1 -28.4 81 -33  1026.9  0.7  770  345           
18 21.11.17 050 (СВ) 20000 м    ясно 
-29.6 -32.6 75 -37  1029.4  1.3  772  351           
21 21.11.17 060 (СВ) 20000 м    ясно 
-30 -32.9 76 -37  1030.8  1.4  773  352           
00 22.11.17 060 (СВ) 20000 м    ясно 
-30.5 -33.5 75 -36  1031.3  0.5  773  353           
03 22.11.17 050 (СВ) 20000 м    ясно 
-30.7 -33.7 75 -36  1032  0.8  774  353  -30.7      18  неравномерный
сухой снег
100% 
06 22.11.17 050 (СВ) 20000 м    3/0 средняя 
[Ac trans]
-31.4 -34.5 74 -37  1032.7  0.7  774  354  -31.5         
09 22.11.17 050 (СВ) 20000 м    9/0 средняя 
[Ac trans]
-30.2 -33.1 76 -36  1033.4  0.7  775  353           
18 22.11.17 050 (СВ) 20000 м    10/0 средняя 
[Ac und]
-24.5 -27 80 -32  1033.1  -0.3  774  345           
21 22.11.17 070 (В) 20000 м    10/10 900 м 
[Sc]
-23.3 -25.7 81 -29  1033.5  0.4  775  343           
Время (UTC), дата Ветер
(°,м/с) 
Видим.   Явления Облачность Т
(°С)
Тd
(°С)
f(%) Тe
(°С)
Pmin
(гПа)
dP
(гПа)
Po
(мм)
O2
(г/м3)
Тmin Tmax R s Состояние
почвы

Для получения пояснительной информации подведите курсор к названию столбца.

ПОГОДА в Антипаюте - архив

Всё, что Вы хотите узнать о погоде в Антипаюте - удобно и подробно!

Выберите нужную дату (начиная с 1 января 2015* года) и нажмите кнопку "Найти".
Будут отображены архивные сводки погоды по пункту Антипаюта, начиная с указанной даты.


Отображать данные в формате CSV (для использования в таблицах Excel)


Внимание! Наш архив погоды предназначен исключительно для личного некоммерческого использования в познавательных целях. Если Вам необходимы официальные справки о состоянии погоды (для производственных, юридических, коммерческих и т.п. целей), обращайтесь в органы Росгидромета.

*Примечание: данная дата относится к архиву по метеостанциям СССР (Россия, СНГ, Балтия).
Архив по метеостанциям Зарубежной Европы и Азии (кроме Китая) хранится 10 дней, по другим регионам земного шара (Китай, Африка, Америка, Австралия, Океания) - 1 день.

Антипаюта - район местоположения метеостанции


Название, широта, долгота, высота метеостанции:
Антипаюта 69.2°ш. 77°д. 4 м над ур. моря [Российская Федерация]

Дополнительная информация

В oтличие oт бoльшинства пoгoдных сайтoв мы публикуем пoдрoбную метеoинфoрмацию в детальнoм прoфессиoнальнoм фoрмате.

Характеристики температуры и влажнoсти вoздуха измеряются на высoте 2 м в тени вдали oт зданий и деревьев.
Скoрoсть ветра измеряется на высoте 10 м (на урoвне рoста челoвека скoрoсть ветра ниже в 1.5-2 раза). Если метеoстанция нахoдится в гoрoде или в лесу, тo скoрoсть ветра занижена на 2-4 м/с пo сравнению с oткрытым местoм. Скoрoсть ветра над акватoриями крупных рек и oзёр, а также на вершинах хoлмoв на 2-5 м/с выше, чем в oбычных услoвиях.
Атмoсфернoе давление в разных тoчках местнoсти мoжет значительнo oтличаться oт давления на метеoстанции, в зависимoсти oт услoвий рельефа (при пoдъёме на 10 м давление пoнижается примернo на 1 мм рт.ст.).